www.pogodaiklimat.ru

Погода и климат >> Архив погоды >> Россия >> Тверская область >> Бологое


ПОГОДА в Бологом

  • Прогноз погоды в Бологом
  • Монитор погоды в Бологом
  • Климат города

АРХИВ ПОГОДЫ в Бологом

Время (UTC), дата Ветер
(напр.,м/с)
 
Видим.   Явления Облачность Т
(С)
Тd
(С)
f
(%)
Тe
(С)
Тes
(С)
Комфортность P
(гПа)
Po
(гПа)
Тmin
(С)
Tmax
(С)
R
(мм)
R24
(мм)
S
(см)
09 8.11 Ю 1 4000 м дымка 10/10 300 м
[St]
+2.4 +1.8 96 +1 +1 1025.2 1001.8
12 8.11 штиль 0 2000 м слабая морось 10/10 200 м
[St]
+2.6 +1.8 94 +1 +1 1025.0 1001.6
15 8.11 штиль 0 2000 м слабая морось {дождь} 10/10 200 м
[St]
+2.5 +1.8 95 +1 +1 1024.8 1001.4 0.3
18 8.11 СВ 1 1000 м дымка {дождь, морось} 10/10 50 м
[St]
+2.6 +2.0 96 +1 +1 1024.8 1001.4 +2.7 0.3
21 8.11 штиль 0 1000 м дымка 10/10 50 м
[St]
+2.5 +2.0 96 +1 +1 1025.2 1001.8
00 9.11 В 1 4000 м дымка 10/10 300 м
[St]
+2.4 +1.9 96 +1 +1 1025.0 1001.6
03 9.11 штиль 0 4000 м дымка 10/10 300 м
[St]
+2.2 +1.6 96 +1 +1 1024.8 1001.4 +2.2 0.0
06 9.11 В 1 4000 м дымка 10/10 300 м
[St]
+2.0 +1.5 96 0 0 1025.4 1001.9 +2.0
09 9.11 ЮВ 2 4000 м в посл. час морось 10/10 300 м
[St]
+2.8 +1.7 92 -0 -0 1025.6 1002.3
12 9.11 В 1 4000 м дымка {морось} 10/10 300 м
[St]
+2.8 +1.4 90 +1 +1 1025.5 1002.1
15 9.11 ЮВ 1 4000 м слабая морось 10/10 300 м
[St]
+2.1 +1.0 92 0 0 1025.6 1002.2 0.3
18 9.11 В 1 4000 м дымка {морось} 10/10 300 м
[St]
+1.9 +1.0 94 0 0 1025.6 1002.1 +3.2 0.3
21 9.11 В 2 4000 м дымка 10/10 300 м
[St]
+1.9 +1.0 94 -2 -2 1026.3 1002.8
00 10.11 В 2 4000 м в посл. час морось 10/10 300 м
[St]
+1.8 +1.1 95 -2 -2 1026.1 1002.7
03 10.11 В 2 4000 м дымка 10/10 300 м
[St]
+1.6 +0.7 94 -2 -2 1026.2 1002.7 +1.6 0.0
06 10.11 ЮВ 3 4000 м дымка 10/10 300 м
[St]
+1.6 -0.1 88 -3 -3 1027.3 1003.8 +1.5 0.0
09 10.11 ЮВ 4 10 км 10/10 300 м
[St]
+1.8 -0.4 85 -3 -3 1028.3 1004.8
12 10.11 ЮВ 4 10 км 10/10 300 м
[St]
+2.1 -0.9 81 -3 -3 1029.0 1005.5
15 10.11 В 4
{10}
10 км 10/10 300 м
[St]
+1.1 -1.7 82 -4 -4 1030.4 1006.8
18 10.11 В 3
{10}
4000 м в посл. час ливневой снег 10/10 300 м
[St]
+0.5 -0.3 94 -4 -4 1032.1 1008.4 +2.1 0.3
21 10.11 ЮВ 5 4000 м дымка {морось} 10/10 300 м
[St]
+0.6 -0.4 93 -5 -5 1033.8 1010.0
00 11.11 ЮВ 4 4000 м слабый ливневой снег {морось} 10/10 300 м
[Cb cap]
+0.4 -0.6 93 -5 -5 1035.1 1011.3
03 11.11 ЮВ 5 4000 м дымка {ливн. осадки} 10/10 300 м
[St]
+0.6 -1.0 89 -5 -5 1036.1 1012.3 +0.3 0.5
06 11.11 ЮВ 6-10
{12}
10 км {ливн. осадки} 9/9 600 м
[Sc]
0.0 -2.7 82 -7 -7 1038.0 1014.0 0.0 0.3
09 11.11 ЮВ 5-10
{12}
10 км 9/9 300 м
[St]
0.0 -3.2 79 -6 -6 1039.1 1015.1
12 11.11 ЮВ 5
{12}
10 км 9/5 600 м
[Sc Ac cast]
+0.6 -4.0 71 -5 -5 1039.6 1015.7
15 11.11 ЮВ 4
{10}
10 км 3/0
[Ac cast]
-1.3 -5.3 74 -7 -7 1040.6 1016.5
18 11.11 Ю 5-10
{11}
10 км 9/9 300 м
[St]
-1.3 -6.7 67 -7 -7 1040.4 1016.3 +0.6
21 11.11 ЮВ 5
{11}
10 км 10/10 300 м
[St]
-1.4 -6.1 70 -8 -8 1040.4 1016.3
00 12.11 ЮВ 5
{11}
10 км 10/10 300 м
[St]
-3.2 -7.2 74 -10 -10 1040.5 1016.2
03 12.11 ЮВ 4 10 км ясно -5.6 -8.6 79 -12 -12 1040.6 1016.1 -5.6
06 12.11 ЮВ 4 10 км ясно -6.4 -9.2 80 -13 -13 1040.5 1015.9 -6.5
09 12.11 ЮВ 4 10 км ясно -3.8 -8.8 68 -10 -9 1039.4 1015.1
12 12.11 ЮВ 4 10 км 9/9 600 м
[Sc]
-2.4 -7.5 68 -8 -8 1038.1 1013.9
15 12.11 ЮВ 5-10
{11}
10 км 9/9 600 м
[Sc]
-2.6 -8.0 66 -9 -9 1037.4 1013.2
18 12.11 Ю 4
{11}
10 км 9/9 600 м
[Sc]
-2.9 -8.2 67 -9 -9 1036.9 1012.7 -1.8
21 12.11 Ю 4 10 км 9/9 600 м
[Sc]
-2.5 -7.4 69 -8 -8 1035.9 1011.8
00 13.11 Ю 4 10 км 9/9 600 м
[Sc]
-2.0 -6.6 71 -8 -8 1034.2 1010.2
03 13.11 Ю 5-10
{10}
10 км 9/9 600 м
[Sc]
-1.5 -6.1 71 -8 -8 1032.8 1008.9 -2.9
06 13.11 Ю 5
{10}
10 км 9/9 600 м
[Sc]
-1.7 -5.2 77 -8 -8 1030.9 1007.0 -2.9
09 13.11 Ю 4
{12}
4000 м слабый переохл. дождь (гололёд) 10/10 300 м
[Frnb Ns]
-1.3 -3.1 88 -7 -7 1029.0 1005.1
12 13.11 Ю 3
{12}
10 км {дождь} 10/10 300 м
[St]
-0.6 -2.9 84 -5 -5 1026.6 1002.9
15 13.11 Ю 5
{11}
10 км 10/10 300 м
[St]
-0.1 -3.9 76 -6 -6 1025.1 1001.4 1
18 13.11 Ю 4
{12}
10 км 10/10 300 м
[St]
+0.5 -4.5 69 -5 -5 1023.5 1000.0 +0.5 1
21 13.11 Ю 4
{12}
10 км {дождь} 10/10 300 м
[St]
+0.2 -4.6 70 -5 -5 1022.8 999.3
00 14.11 Ю 3
{12}
4000 м слабый ливневой дождь 10/10 300 м
[Cb cap]
-0.5 -3.1 83 -5 -5 1021.6 998.0
03 14.11 Ю 3 4000 м слабый снег {дождь} 10/10 300 м
[Frnb Ns]
-0.8 -2.0 92 -6 -6 1020.9 997.3 -0.8 3
06 14.11 Ю 3 4000 м слабый снег {дождь} 10/10 300 м
[Frnb Ns]
-1.4 -1.9 96 -7 -7 1020.7 997.1 -1.4 6 6
09 14.11 Ю 3 4000 м слабый снег 10/10 300 м
[Frnb Ns]
-1.9 -2.6 95 -7 -7 1021.5 997.8
12 14.11 Ю 2 4000 м слабый снег 10/10 300 м
[Frnb Ns]
-1.8 -2.5 95 -6 -6 1022.1 998.4
15 14.11 Ю 2 4000 м слабый снег 10/8 300 м
[Frnb As op]
-2.3 -3.0 95 -6 -6 1023.8 1000.0 5
18 14.11 Ю 2 4000 м слабый снег 10/10 300 м
[Frnb Ns]
-2.4 -3.1 95 -7 -7 1025.0 1001.2 -1.3 4
21 14.11 Ю 2 4000 м слабый снег 10/10 300 м
[Frnb Ns]
-2.5 -3.1 96 -7 -7 1026.9 1003.0
00 15.11 Ю 2 4000 м дымка {снег} 10/10 300 м
[St]
-2.4 -3.1 95 -7 -7 1028.4 1004.5
03 15.11 Ю 1 4000 м дымка 10/10 300 м
[St]
-2.3 -3.1 94 -5 -5 1030.2 1006.3 -2.5 4
06 15.11 Ю 1 4000 м в посл. час зёрна {снег} 10/10 300 м
[St]
-2.4 -3.1 95 -5 -5 1032.4 1008.4 -2.5 2 10

 

Местоположение метеостанции Бологое (Тверская область, Россия): широта 57.88 долгота 34.03 высота над уровнем моря 187 м.

В архиве по умолчанию представлена погода в Бологом за последнюю неделю. Архивные данные за месяц целиком и за предыдущие месяцы, начиная с января 2011 года, Вы можете получить, выбрав интересующий диапазон дат из раскрывающегося списка и нажав кнопку "Ввод!".


*Определитесь, кто Вы:
робот инопланетянин человек

Внимание! Время в таблицах - всемирное. Для получения местного времени необходимо прибавить поправку, которая в Бологом равна 3 ч.

Смотрите также архив погоды в соседних городах и на ближайших метеорологических станциях:

Погода в Валдае (Новгородская область, Россия) (48 км)
Погода в Вышнем Волочке (Тверская область, Россия) (50 км)
Погода в Удомле (Тверская область, Россия) (58 км)
Погода в Боровичах (Новгородская область, Россия) (61 км)
Погода в Охонах (Новгородская область, Россия) (68 км)
Погода в Окуловке (Новгородская область, Россия) (69 км)
Погода в Демянске (Новгородская область, Россия) (96 км)
Погода в Крестцах (Новгородская область, Россия) (99 км)
Погода в Осташкове (Тверская область, Россия) (102 км)
Погода в Максатихе (Тверская область, Россия) (111 км)

Пояснения к столбцам:

Ветер - указаны скорость ветра в м/с - средняя за 10 мин, порывы в срок и между сроками (в фигурных скобках) и направление, откуда дует ветер: С - северный, СВ - северо-восточный, В - восточный, ЮВ - юго-восточный, Ю - южный, ЮЗ - юго-западный, З - западный, СЗ - северо-западный.
Видимость - горизонтальная дальность видимости в метрах или километрах. При видимости от 1 до 10 км при отсутствии осадков обычно наблюдается дымка, при ухудшении видимости до 1 км и менее - туман. В сухую погоду видимость может ухудшаться дымом, пылью или мглою.
Явления - указаны атмосферные явления, наблюдавшиеся в срок или в последний час перед сроком; фигурными скобками обозначены явления, наблюдавшиеся между сроками (за 1-3 часа до срока); квадратными скобками обозначены град или гололедные отложения с указанием их диаметра в мм.
Облачность - указаны через наклонную черту общая и нижняя облачность в баллах и высота нижней границы облаков в метрах; квадратными скобками обозначены формы облаков: Ci - перистые, Cs - перисто-слоистые, Cc - перисто-кучевые, Ac - высококучевые, As - высокослоистые, Sc - слоисто-кучевые, Ns - слоисто-дождевые, Cu - кучевые, Cb - кучево-дождевые. Подробнее классификацию облаков см. в Атласе облаков (PDF).
T - Температура воздуха - температура, измеренная на высоте 2 м над землей.
Td - Температура точки росы - температура, при понижении до которой содержащийся в воздухе водяной пар достигнет насыщения.
f - Относительная влажность воздуха - влажноcть воздуха, измеренная на высоте 2 м над землей.
Te - Эффективная температура - температура, которую ощущает одетый по сезону человек в тени. Характеристика душности погоды. При расчете учитывается влияние влажности воздуха и скорости ветра на теплоощущения человека.
Tes - Эффективная температура на солнце - температура, которую ощущает человек, с поправкой на солнечный нагрев. Характеристика знойности погоды. Зависит от высоты солнца над горизонтом, облачности и скорости ветра. Ночью, в пасмурную погоду, а также при ветре 12 м/с и более поправка равна нулю.
P - Атмосферное давление - приведенное к уровню моря атмосферное давление.
Po - Атмосферное давление - измеренное на уровне метеостанции атмосферное давление.
Tmin - Минимальная температура - минимум температуры воздуха на высоте 2 м над землей.
Tmax - Максимальная температура - максимум температуры воздуха на высоте 2 м над землей.
R - Количество осадков - Количество выпавших осадков за период времени, мм. При наведении курсора мыши на число - период времени, за который выпало указанное количество осадков.
R24 - Количество осадков - Количество выпавших осадков за 24 часа, мм.
S - Снежный покров - Высота снежного покрова, см. При наведении курсора мыши на число - состояние снежного покрова и степень покрытия местности в баллах.